EW0923 Weather Reports


time (UTC)temp
C
wind
direction
speed
KPH
gust
KPH
rain 1hr
cm
rain 24hr
cm
rain mn
cm
humidity
%
barometer
mb
20260504151027 18 221 6.4 17.7 0.00 0.00 0.00 41 1013.2
20260504150526 18 282 4.8 14.5 0.00 0.00 0.00 42 1013.2
20260504141028 17 223 4.8 17.7 0.00 0.00 0.00 52 1013.3
20260504140525 16 257 4.8 19.3 0.00 0.00 0.00 51 1013.5
20260504130525 15 286 8.0 25.7 0.00 0.00 0.00 56 1013.8
20260504110526 8 255 0.0 1.6 0.00 0.00 0.00 79 1014.5
20260504100530 6 0 0.0 1.6 0.00 0.00 0.00 78 1014.5
20260504081547 9 219 1.6 9.7 0.00 0.00 0.00 65 1014.3
20260504081024 9 252 0.0 6.4 0.00 0.00 0.00 65 1014.3
20260504080526 9 217 1.6 8.0 0.00 0.00 0.00 65 1014.4
20260504050525 8 219 0.0 1.6 0.00 0.00 0.00 61 1014.2
20260504045525 8 0 0.0 1.6 0.00 0.00 0.00 61 1014.3
20260504045032 8 0 0.0 3.2 0.00 0.00 0.00 60 1014.3
20260504044543 8 0 0.0 3.2 0.00 0.00 0.00 60 1014.2
20260504044030 8 238 0.0 1.6 0.00 0.00 0.00 59 1014.1
20260504043527 8 0 0.0 3.2 0.00 0.00 0.00 59 1014.1
20260504043046 8 214 0.0 3.2 0.00 0.00 0.00 59 1014.0
20260504042526 8 178 0.0 3.2 0.00 0.00 0.00 59 1014.1
20260504042026 8 238 0.0 1.6 0.00 0.00 0.00 59 1014.0
20260504041546 8 0 0.0 1.6 0.00 0.00 0.00 58 1013.9
20260504041026 8 226 0.0 1.6 0.00 0.00 0.00 58 1013.8
20260504040526 8 248 0.0 1.6 0.00 0.00 0.00 58 1013.8
20260504040045 8 248 0.0 4.8 0.00 0.00 0.00 57 1013.8
20260504035524 8 0 1.6 4.8 0.00 0.00 0.00 57 1013.8
20260504035024 8 236 0.0 3.2 0.00 0.00 0.00 57 1013.7
20260504034546 8 0 0.0 3.2 0.00 0.00 0.00 56 1013.7
20260504034026 8 241 0.0 3.2 0.00 0.00 0.00 56 1013.8
20260504033525 8 0 0.0 3.2 0.00 0.00 0.00 55 1013.7
20260504033039 8 249 1.6 3.2 0.00 0.00 0.00 55 1013.7
20260504032527 8 227 0.0 3.2 0.00 0.00 0.00 54 1013.7
20260504032027 8 0 0.0 3.2 0.00 0.00 0.00 54 1013.6
20260504031547 8 226 0.0 1.6 0.00 0.00 0.00 54 1013.6
20260504031025 8 220 0.0 4.8 0.00 0.00 0.00 54 1013.6
20260504030525 8 221 0.0 4.8 0.00 0.00 0.00 54 1013.5
20260504025525 8 0 0.0 1.6 0.00 0.00 0.00 53 1013.5
20260504025025 8 0 0.0 3.2 0.00 0.00 0.00 52 1013.6
20260504024542 8 0 0.0 3.2 0.00 0.00 0.00 53 1013.5
20260504024025 9 211 0.0 3.2 0.00 0.00 0.00 52 1013.6
20260504023525 9 0 0.0 4.8 0.00 0.00 0.00 52 1013.6
20260504023042 9 0 0.0 4.8 0.00 0.00 0.00 52 1013.6
20260504022525 9 0 0.0 4.8 0.00 0.00 0.00 52 1013.6
20260504022024 9 234 0.0 1.6 0.00 0.00 0.00 52 1013.6
20260504021544 9 0 0.0 1.6 0.00 0.00 0.00 52 1013.6
20260504021026 8 0 0.0 1.6 0.00 0.00 0.00 53 1013.6
20260504020527 9 0 0.0 1.6 0.00 0.00 0.00 52 1013.6
20260504020045 9 0 0.0 1.6 0.00 0.00 0.00 51 1013.6
20260504015527 9 0 0.0 1.6 0.00 0.00 0.00 51 1013.5
20260504015027 9 0 0.0 1.6 0.00 0.00 0.00 52 1013.5
20260504014545 9 0 0.0 1.6 0.00 0.00 0.00 51 1013.5
20260504014024 9 0 0.0 3.2 0.00 0.00 0.00 49 1013.4
20260504013526 9 0 0.0 3.2 0.00 0.00 0.00 49 1013.3
20260504013050 9 202 0.0 0.0 0.00 0.00 0.00 51 1013.3
20260504012527 9 0 0.0 0.0 0.00 0.00 0.00 51 1013.2
20260504012024 9 0 0.0 0.0 0.00 0.00 0.00 52 1013.2
20260504011540 10 0 0.0 0.0 0.00 0.00 0.00 51 1013.1
20260504011030 10 0 0.0 0.0 0.00 0.00 0.00 50 1013.0
20260504010524 10 0 0.0 0.0 0.00 0.00 0.00 48 1013.0
20260504010050 10 0 0.0 0.0 0.00 0.00 0.00 48 1012.9
20260504005525 10 0 0.0 0.0 0.00 0.00 0.00 47 1012.7
20260504005027 10 0 0.0 0.0 0.00 0.00 0.00 46 1012.7
20260504004543 11 0 0.0 0.0 0.00 0.00 0.00 45 1012.7
20260504004025 11 0 0.0 1.6 0.00 0.00 0.00 43 1012.6
20260504003526 11 0 0.0 1.6 0.00 0.00 0.00 42 1012.4
20260504003045 12 248 0.0 1.6 0.00 0.00 0.00 41 1012.4
20260504002528 12 0 0.0 1.6 0.00 0.00 0.00 39 1012.2
20260504002032 12 248 0.0 1.6 0.00 0.00 0.00 38 1012.2
20260504001545 12 273 0.0 1.6 0.00 0.00 0.00 36 1012.2
20260504001029 13 275 0.0 3.2 0.00 0.00 0.00 36 1012.1
20260504000529 13 267 0.0 3.2 0.00 0.00 0.00 35 1012.1
20260504000046 13 288 0.0 6.4 0.00 0.00 0.00 35 1012.1
20260503235529 13 281 0.0 6.4 0.00 0.00 0.00 34 1012.1
20260503235032 13 302 1.6 4.8 0.00 0.00 0.00 34 1012.0
20260503234541 13 280 1.6 4.8 0.00 0.00 0.00 34 1012.1
20260503234029 14 275 1.6 8.0 0.00 0.00 0.00 33 1012.0
20260503233528 14 293 1.6 16.1 0.00 0.00 0.00 32 1012.0
20260503233050 14 280 4.8 16.1 0.00 0.00 0.00 32 1011.9
20260503232528 14 294 3.2 12.9 0.00 0.00 0.00 32 1011.9
20260503232028 14 276 3.2 9.7 0.00 0.00 0.00 31 1011.8
20260503231547 15 297 1.6 9.7 0.00 0.00 0.00 32 1011.9
20260503231031 15 335 1.6 16.1 0.00 0.00 0.00 31 1011.7
20260503230529 15 327 1.6 16.1 0.00 0.00 0.00 31 1011.8
20260503230058 15 328 3.2 14.5 0.00 0.00 0.00 30 1011.7
20260503225528 15 301 4.8 16.1 0.00 0.00 0.00 30 1011.6
20260503225029 15 301 4.8 16.1 0.00 0.00 0.00 30 1011.5
20260503224542 15 271 4.8 16.1 0.00 0.00 0.00 30 1011.6
20260503224028 15 279 6.4 16.1 0.00 0.00 0.00 29 1011.7
20260503223533 15 285 4.8 17.7 0.00 0.00 0.00 29 1011.6
20260503223055 15 292 4.8 17.7 0.00 0.00 0.00 29 1011.7
20260503222528 15 265 4.8 8.0 0.00 0.00 0.00 30 1011.6
20260503222028 15 297 3.2 12.9 0.00 0.00 0.00 30 1011.6
20260503221547 15 328 1.6 12.9 0.00 0.00 0.00 30 1011.6
20260503221033 15 317 4.8 16.1 0.00 0.00 0.00 30 1011.6
20260503220529 15 292 3.2 16.1 0.00 0.00 0.00 30 1011.6
20260503220050 15 290 6.4 14.5 0.00 0.00 0.00 30 1011.6
20260503215529 15 283 6.4 17.7 0.00 0.00 0.00 31 1011.6
20260503215029 15 47 6.4 20.9 0.00 0.00 0.00 30 1011.6
20260503214554 15 52 6.4 20.9 0.00 0.00 0.00 30 1011.6
20260503214029 15 293 6.4 29.0 0.00 0.00 0.00 30 1011.6
20260503213528 14 317 4.8 30.6 0.00 0.00 0.00 31 1011.7
20260503213046 14 289 11.3 30.6 0.00 0.00 0.00 30 1011.7
20260503212524 14 276 6.4 29.0 0.00 0.00 0.00 30 1011.6
20260503212027 14 277 8.0 29.0 0.00 0.00 0.00 31 1011.7
20260503211542 14 303 6.4 37.0 0.00 0.00 0.00 31 1011.6
20260503211024 14 266 11.3 37.0 0.00 0.00 0.00 31 1011.7
20260503210524 14 318 9.7 24.1 0.00 0.00 0.00 29 1011.8
20260503210039 14 274 6.4 24.1 0.00 0.00 0.00 30 1011.7
20260503205524 14 274 4.8 27.4 0.00 0.00 0.00 30 1011.8
20260503205028 15 280 4.8 27.4 0.00 0.00 0.00 31 1011.9
20260503204546 14 298 9.7 27.4 0.00 0.00 0.00 30 1011.7
20260503204024 14 42 9.7 22.5 0.00 0.00 0.00 30 1011.7
20260503203526 14 284 11.3 22.5 0.00 0.00 0.00 31 1011.9
20260503203046 14 285 6.4 19.3 0.00 0.00 0.00 30 1011.8
20260503202528 14 310 8.0 19.3 0.00 0.00 0.00 31 1011.9
20260503202024 15 296 6.4 25.7 0.00 0.00 0.00 31 1011.8
20260503201548 14 290 8.0 25.7 0.00 0.00 0.00 30 1011.8
20260503201025 14 305 4.8 22.5 0.00 0.00 0.00 30 1011.9
20260503200524 13 309 11.3 22.5 0.00 0.00 0.00 30 1012.0
20260503200044 13 259 9.7 22.5 0.00 0.00 0.00 30 1011.9
20260503195523 13 294 3.2 29.0 0.00 0.00 0.00 31 1012.0
20260503195024 13 289 4.8 29.0 0.00 0.00 0.00 31 1011.9
20260503194557 14 284 9.7 29.0 0.00 0.00 0.00 30 1012.0
20260503194025 14 293 6.4 20.9 0.00 0.00 0.00 30 1012.1
20260503193527 14 302 8.0 19.3 0.00 0.00 0.00 30 1012.0
20260503193044 13 287 6.4 19.3 0.00 0.00 0.00 30 1012.0
20260503192526 13 286 8.0 17.7 0.00 0.00 0.00 30 1012.0
20260503192027 13 294 6.4 16.1 0.00 0.00 0.00 30 1012.2
20260503191547 13 281 8.0 20.9 0.00 0.00 0.00 29 1012.3
20260503191029 14 296 9.7 20.9 0.00 0.00 0.00 31 1012.3
20260503190528 13 277 6.4 17.7 0.00 0.00 0.00 32 1012.4
20260503190046 13 296 6.4 19.3 0.00 0.00 0.00 31 1012.4
20260503185524 13 327 6.4 19.3 0.00 0.00 0.00 31 1012.6
20260503185027 13 284 6.4 20.9 0.00 0.00 0.00 30 1012.5
20260503184543 13 263 8.0 25.7 0.00 0.00 0.00 30 1012.4
20260503184029 13 327 6.4 25.7 0.00 0.00 0.00 31 1012.6
20260503183527 13 38 8.0 24.1 0.00 0.00 0.00 30 1012.7
20260503183054 13 305 6.4 22.5 0.00 0.00 0.00 31 1012.8
20260503182524 13 294 9.7 19.3 0.00 0.00 0.00 31 1012.9
20260503182026 13 281 4.8 19.3 0.00 0.00 0.00 33 1012.8
20260503181554 12 292 6.4 22.5 0.00 0.00 0.00 31 1012.8
20260503181027 13 308 8.0 22.5 0.00 0.00 0.00 33 1012.8
20260503180530 12 288 6.4 16.1 0.00 0.00 0.00 36 1012.7
20260503180050 13 290 6.4 22.5 0.00 0.00 0.00 34 1012.9
20260503175529 12 285 4.8 24.1 0.00 0.00 0.00 35 1012.9
20260503175027 12 268 11.3 24.1 0.00 0.00 0.00 35 1013.0
20260503174552 12 288 4.8 17.7 0.00 0.00 0.00 35 1012.9
20260503174030 12 285 8.0 17.7 0.00 0.00 0.00 36 1012.9
20260503173527 12 289 6.4 22.5 0.00 0.00 0.00 35 1012.9
20260503173041 12 282 9.7 22.5 0.00 0.00 0.00 35 1012.9
20260503172526 12 292 9.7 22.5 0.00 0.00 0.00 36 1013.0
20260503172027 12 322 9.7 22.5 0.00 0.00 0.00 36 1012.9
20260503171536 12 279 9.7 24.1 0.00 0.00 0.00 35 1013.0
20260503171024 12 321 9.7 24.1 0.00 0.00 0.00 34 1013.0
20260503170524 12 314 11.3 24.1 0.00 0.00 0.00 36 1013.1